Tracking 31027 objects as of 19-Jul-2025
HD Live streaming from Space Station
objects crossing your sky now

IRIDIUM 33 DEB

Track IRIDIUM 33 DEB now!
10-day predictions


NORAD ID: 34693
Int'l Code: 1997-051KQ
Perigee: 551.3 km
Apogee: 568.9 km
Inclination: 86.3 °
Period: 95.7 minutes
Semi major axis: 6931 km
RCS: 0.01 m2 (small)
Launch date: September 14, 1997
Source: United States (US)
Launch site: TYURATAM MISSILE AND SPACE COMPLEX (TTMTR)

Note: This is SATELLITE DEBRIS
Your satellite tracking list
RESURS O1 DEB
Track 1 satellite(s)




NASA's NSSDC Master Catalog

Two Line Element Set (TLE):
1 34693U 97051KQ  25199.51146902  .00027107  00000-0  19245-2 0  9991
2 34693  86.3212  15.1879 0012705 186.6606 227.6415 15.04539938866888
Source of the keplerian elements: AFSPC